This is the latest recevied weather packets stored in our database for station/object KC3SOZ. If no packets are shown the sender has not sent any weather packets the latest 10 day(s).
| Time | Temp. | Humidity | Pressure | Rain* | Wind** | Luminosity | Snow |
|---|---|---|---|---|---|---|---|
| 1777490367 | 11.11° C | 96% | 1011.6 hPa | 0 mm | - | 182 W/m² | - |
| 1777490064 | 11.11° C | 98% | 1011.8 hPa | 0 mm | - | 169 W/m² | - |
| 1777489761 | 10.56° C | 99% | 1011.9 hPa | 0 mm | - | 186 W/m² | - |
| 1777489459 | 10.56° C | 99% | 1011.9 hPa | 0 mm | - | 109 W/m² | - |
| 1777489155 | 10.56° C | 98% | 1012.2 hPa | 0 mm | - | 108 W/m² | - |
| 1777488853 | 10.56° C | 98% | 1012.3 hPa | 0 mm | - | 79 W/m² | - |
| 1777488550 | 11.11° C | 98% | 1012.3 hPa | 0 mm | - | 54 W/m² | - |
| 1777488248 | 11.11° C | 98% | 1012.2 hPa | 1.27 mm | - | 82 W/m² | - |
| 1777487946 | 11.11° C | 97% | 1012.3 hPa | 10.16 mm | - | 69 W/m² | - |
| 1777487643 | 11.11° C | 97% | 1012.5 hPa | 13.72 mm | - | 49 W/m² | - |
| 1777487340 | 11.11° C | 97% | 1012.4 hPa | 4.83 mm | - | 55 W/m² | - |
| 1777487037 | 11.11° C | 97% | 1012.6 hPa | 0 mm | - | 36 W/m² | - |
| 1777486733 | 11.11° C | 97% | 1012.4 hPa | 0 mm | - | 38 W/m² | - |
| 1777486431 | 11.67° C | 96% | 1012.6 hPa | 1.78 mm | - | 42 W/m² | - |
| 1777486129 | 11.11° C | 96% | 1012.6 hPa | 1.27 mm | - | 39 W/m² | - |
| 1777485825 | 11.67° C | 94% | 1013 hPa | 3.05 mm | - | 55 W/m² | - |
| 1777485521 | 12.22° C | 92% | 1013.1 hPa | 1.78 mm | - | 75 W/m² | - |
| 1777485217 | 12.22° C | 91% | 1013.1 hPa | 0 mm | - | 96 W/m² | - |
| 1777484913 | 12.22° C | 90% | 1013.1 hPa | 0 mm | - | 73 W/m² | - |
| 1777484611 | 12.22° C | 89% | 1013 hPa | 0 mm | - | 88 W/m² | - |
| 1777484307 | 12.78° C | 89% | 1013.2 hPa | 0 mm | - | 83 W/m² | - |
| 1777484003 | 12.78° C | 87% | 1013.5 hPa | 0 mm | - | 91 W/m² | - |
| 1777483700 | 12.78° C | 87% | 1013.5 hPa | 0 mm | - | 71 W/m² | - |
| 1777483395 | 12.78° C | 87% | 1013.4 hPa | 0 mm | - | 95 W/m² | - |
| 1777483091 | 12.78° C | 86% | 1013.5 hPa | 0 mm | - | 96 W/m² | - |
* Rain latest hour (hover to see other rain measurements)
** Current wind speed in m/s (hover to see current wind gust speed)